Port Orchard, WA

4:37 PM PST on February 13, 2016 (GMT -0800)
Bremerton National

Weather History for KPWT - September, 2011

Change the Weather History Date:

Thursday, September 15, 2011

  Actual Average Record
Temperature  
Mean Temperature 60 °F -  
Max Temperature 66 °F 66 °F 89 °F (2014)
Min Temperature 53 °F 47 °F 39 °F (2015)
Degree Days  
Heating Degree Days 6    
Growing Degree Days 10 (Base 50)    
Moisture  
Dew Point 50 °F    
Average Humidity 73    
Maximum Humidity 88    
Minimum Humidity 59    
Precipitation  
Precipitation 0.00 in - - ()
Sea Level Pressure  
Sea Level Pressure 29.98 in    
Wind  
Wind Speed 5 mph (SSW)    
Max Wind Speed 13 mph    
Max Gust Speed 17 mph    
Visibility 10 miles    
Events      
Averages and records for this station are not official NWS values.
T = Trace of Precipitation, MM = Missing Value Source: NWS Daily Summary

Daily Weather History Graph

Daily Weather History Graph

Search for Another Location

Airport or City:

Trip Planner

Search our weather history database for the weather conditions in past years. The results will help you decide how hot, cold, wet, or windy it might be!

Date:

Astronomy

Sep. 15, 2011 Rise Set
Actual Time 6:48 AM PDT 7:23 PM PDT
Civil Twilight 6:17 AM PDT 7:54 PM PDT
Nautical Twilight 5:40 AM PDT 8:30 PM PDT
Astronomical Twilight 5:02 AM PDT 9:09 PM PDT
Moon 8:21 PM PDT (9/15) 10:21 AM PDT (9/15)
Length of Visible Light 13h 37m
Length of Day
12h 35m
Waning Gibbous, 90% of the Moon is Illuminated
Sep 15
Waning Gibbous
Sep 20
Last Quarter
Sep 27
New
Oct 3
First Quarter
Oct 11
Full

Hourly Weather History & Observations

Time (PDT) Temp. Dew Point Humidity Pressure Visibility Wind Dir Wind Speed Gust Speed Precip Events Conditions
12:15 AM 57.2 °F 51.8 °F 82% 29.98 in 10.0 mi SSW 4.6 mph - N/A   Overcast
12:35 AM 57.2 °F 51.8 °F 82% 29.98 in 10.0 mi SSW 4.6 mph - N/A   Overcast
12:55 AM 55.4 °F 51.8 °F 88% 29.96 in 10.0 mi South 4.6 mph - N/A   Overcast
1:15 AM 55.4 °F 51.8 °F 88% 29.97 in 10.0 mi South 5.8 mph - N/A   Overcast
1:35 AM 55.4 °F 51.8 °F 88% 29.97 in 10.0 mi SSW 4.6 mph - N/A   Overcast
1:55 AM 55.4 °F 51.8 °F 88% 29.97 in 10.0 mi South 3.5 mph - N/A   Overcast
2:15 AM 55.4 °F 51.8 °F 88% 29.97 in 10.0 mi South 4.6 mph - N/A   Overcast
2:35 AM 55.4 °F 51.8 °F 88% 29.96 in 10.0 mi South 4.6 mph - N/A   Overcast
2:55 AM 55.4 °F 51.8 °F 88% 29.97 in 10.0 mi South 5.8 mph - N/A   Overcast
3:15 AM 55.4 °F 50.0 °F 82% 29.96 in 10.0 mi South 6.9 mph - N/A   Overcast
3:35 AM 55.4 °F 50.0 °F 82% 29.97 in 10.0 mi South 4.6 mph - N/A   Overcast
4:15 AM 55.4 °F 48.2 °F 77% 29.97 in 10.0 mi South 5.8 mph - N/A   Overcast
4:35 AM 55.4 °F 48.2 °F 77% 29.96 in 10.0 mi South 5.8 mph - N/A   Overcast
4:55 AM 55.4 °F 48.2 °F 77% 29.96 in 10.0 mi South 3.5 mph - N/A   Overcast
5:35 AM 53.6 °F 48.2 °F 82% 29.96 in 10.0 mi South 3.5 mph - N/A   Overcast
5:55 AM 53.6 °F 48.2 °F 82% 29.95 in 10.0 mi South 3.5 mph - N/A   Overcast
6:15 AM 53.6 °F 48.2 °F 82% 29.96 in 10.0 mi South 5.8 mph - N/A   Overcast
6:35 AM 53.6 °F 46.4 °F 77% 29.95 in 10.0 mi Calm Calm - N/A   Overcast
6:55 AM 53.6 °F 46.4 °F 77% 29.97 in 10.0 mi South 4.6 mph - N/A   Overcast
7:15 AM 53.6 °F 46.4 °F 77% 29.96 in 10.0 mi SSW 4.6 mph - N/A   Overcast
7:35 AM 53.6 °F 46.4 °F 77% 29.97 in 10.0 mi Calm Calm - N/A   Overcast
7:55 AM 53.6 °F 46.4 °F 77% 29.96 in 10.0 mi South 3.5 mph - N/A   Overcast
8:15 AM 53.6 °F 46.4 °F 77% 29.97 in 10.0 mi South 3.5 mph - N/A   Overcast
8:35 AM 55.4 °F 46.4 °F 72% 29.97 in 10.0 mi SSW 5.8 mph - N/A   Overcast
8:55 AM 55.4 °F 46.4 °F 72% 29.98 in 10.0 mi SSW 6.9 mph - N/A   Overcast
9:15 AM 55.4 °F 46.4 °F 72% 29.98 in 10.0 mi South 4.6 mph - N/A   Overcast
9:35 AM 55.4 °F 48.2 °F 77% 29.98 in 10.0 mi SSW 6.9 mph - N/A   Overcast
9:55 AM 55.4 °F 48.2 °F 77% 29.98 in 10.0 mi SSW 5.8 mph - N/A   Overcast
10:15 AM 57.2 °F 48.2 °F 72% 29.97 in 10.0 mi Calm Calm - N/A   Overcast
10:35 AM 57.2 °F 48.2 °F 72% 29.98 in 10.0 mi West 4.6 mph - N/A   Overcast
10:55 AM 57.2 °F 48.2 °F 72% 29.99 in 10.0 mi Calm Calm - N/A   Overcast
11:15 AM 59.0 °F 48.2 °F 67% 29.99 in 10.0 mi NNW 4.6 mph - N/A   Overcast
11:35 AM 60.8 °F 50.0 °F 68% 29.99 in 10.0 mi West 4.6 mph - N/A   Mostly Cloudy
11:55 AM 60.8 °F 50.0 °F 68% 29.99 in 10.0 mi WNW 4.6 mph - N/A   Overcast
12:15 PM 60.8 °F 50.0 °F 68% 30.00 in 10.0 mi Calm Calm - N/A   Overcast
12:35 PM 62.6 °F 51.8 °F 68% 30.00 in 10.0 mi West 3.5 mph - N/A   Overcast
12:55 PM 62.6 °F 51.8 °F 68% 30.00 in 10.0 mi WSW 3.5 mph - N/A   Mostly Cloudy
1:15 PM 62.6 °F 51.8 °F 68% 30.00 in 10.0 mi West 5.8 mph - N/A   Mostly Cloudy
1:35 PM 62.6 °F 51.8 °F 68% 29.99 in 8.0 mi SW 10.4 mph - N/A   Mostly Cloudy
1:55 PM 62.6 °F 50.0 °F 63% 29.99 in 10.0 mi SSW 10.4 mph - N/A   Scattered Clouds
2:15 PM 64.4 °F 50.0 °F 59% 30.00 in 10.0 mi SSW 12.7 mph - N/A   Mostly Cloudy
2:35 PM 64.4 °F 50.0 °F 59% 29.99 in 10.0 mi South 11.5 mph - N/A   Mostly Cloudy
2:55 PM 64.4 °F 50.0 °F 59% 29.99 in 10.0 mi SSW 12.7 mph - N/A   Mostly Cloudy
3:15 PM 66.2 °F 51.8 °F 60% 29.99 in 10.0 mi SSW 9.2 mph - N/A   Overcast
3:35 PM 64.4 °F 51.8 °F 64% 29.99 in 10.0 mi South 8.1 mph - N/A   Overcast
3:55 PM 64.4 °F 51.8 °F 64% 29.99 in 10.0 mi SSW 12.7 mph - N/A   Overcast
4:15 PM 64.4 °F 51.8 °F 64% 29.99 in 10.0 mi South 9.2 mph - N/A   Overcast
4:35 PM 64.4 °F 51.8 °F 64% 29.98 in 10.0 mi South 12.7 mph 17.3 mph N/A   Overcast
4:55 PM 66.2 °F 51.8 °F 60% 29.98 in 10.0 mi SSW 12.7 mph 17.3 mph N/A   Overcast
5:15 PM 64.4 °F 51.8 °F 64% 29.98 in 10.0 mi South 10.4 mph 16.1 mph N/A   Overcast
5:35 PM 64.4 °F 51.8 °F 64% 29.98 in 10.0 mi SSW 10.4 mph - N/A   Overcast
5:55 PM 62.6 °F 51.8 °F 68% 29.98 in 10.0 mi SSW 8.1 mph - N/A   Overcast
6:15 PM 62.6 °F 51.8 °F 68% 29.98 in 10.0 mi SSW 10.4 mph - N/A   Overcast
6:35 PM 62.6 °F 51.8 °F 68% 29.98 in 10.0 mi SSW 10.4 mph - N/A   Overcast
6:55 PM 60.8 °F 51.8 °F 72% 29.98 in 10.0 mi SSW 8.1 mph - N/A   Mostly Cloudy
7:15 PM 60.8 °F 51.8 °F 72% 29.98 in 10.0 mi SSW 6.9 mph - N/A   Scattered Clouds
7:35 PM 57.2 °F 51.8 °F 82% 29.98 in 10.0 mi South 6.9 mph - N/A   Mostly Cloudy
7:55 PM 59.0 °F 51.8 °F 77% 29.99 in 10.0 mi South 6.9 mph - N/A   Overcast
8:15 PM 57.2 °F 51.8 °F 82% 29.99 in 10.0 mi South 4.6 mph - N/A   Overcast
8:35 PM 57.2 °F 51.8 °F 82% 29.99 in 10.0 mi South 4.6 mph - N/A   Overcast
8:55 PM 57.2 °F 51.8 °F 82% 29.99 in 10.0 mi South 6.9 mph - N/A   Overcast
9:15 PM 57.2 °F 51.8 °F 82% 30.00 in 10.0 mi South 4.6 mph - N/A   Overcast
9:35 PM 57.2 °F 51.8 °F 82% 30.00 in 10.0 mi South 4.6 mph - N/A   Overcast
9:55 PM 57.2 °F 51.8 °F 82% 30.00 in 10.0 mi South 3.5 mph - N/A   Overcast
10:15 PM 55.4 °F 51.8 °F 88% 30.01 in 10.0 mi South 5.8 mph - N/A   Overcast
10:35 PM 55.4 °F 50.0 °F 82% 30.01 in 10.0 mi South 4.6 mph - N/A   Overcast
10:55 PM 55.4 °F 51.8 °F 88% 30.00 in 10.0 mi South 4.6 mph - N/A   Overcast
11:35 PM 53.6 °F 50.0 °F 88% 30.00 in 10.0 mi SSE 4.6 mph - N/A   Overcast
11:55 PM 53.6 °F 50.0 °F 88% 30.02 in 10.0 mi SE 4.6 mph - N/A   Overcast